Location: ?????
(37.7324°N, 23.9257°E)
Time: 21:48:13
(UTC+00:00)

COSMOS 2455 - Pass Details

Date: 29 November 2020
Orbit: 900 x 909 km, 67.1° (Epoch: 19 January)

Event Time Altitude Azimuth Distance (km) Brightness Sun altitude
Rises 04:14:36 0° 207° (SSW) 3,513 5.8 -12.6°
Reaches altitude 10° 04:17:05 10° 207° (SSW) 2,577 5.1 -12.2°
Maximum altitude 04:23:05 87° 297° (WNW) 913 2.8 -11.0°
Drops below altitude 10° 04:29:08 10° 27° (NNE) 2,597 5.3 -9.9°
Sets 04:31:39 0° 28° (NNE) 3,543 6.0 -9.4°
